Regional Weather Roundup
Issued by NWS

Home | Current Version | Previous Version | Text Only | Print | Product List | Glossary On
Versions: 1 2 3 4 5 6 7 8 9 10 11 12 13 14 15 16 17 18 19 20 21 22 23 24 25 26 27 28 29 30 31 32 33 34 35 36 37 38 39 40 41 42 43 44 45 46 47 48 49 50
000
ASUS44 KFWD 180115
RWRTX
NORTH TEXAS HOURLY WEATHER ROUNDUP
NATIONAL WEATHER SERVICE FORT WORTH TX
700 PM CST WED DEC 17 2014

NOTE: "FAIR" INDICATES FEW OR NO CLOUDS BELOW 12,000 FEET WITH NO
SIGNIFICANT WEATHER AND/OR OBSTRUCTIONS TO VISIBILITY.

TXZ118-119-180200-
DALLAS/FORT WORTH METROPLEX

CITY           SKY/WX    TMP DP  RH WIND       PRES   REMARKS
DFW AIRPORT    LGT RAIN  42  41  96 NE7       30.13S FOG     WCI  38
DALLAS LOVE    LGT RAIN  43  41  93 NE7       30.15R WCI  39
FTW MEACHAM    LGT RAIN  44  41  89 NE7       30.13R FOG
DAL-EXECUTIVE  CLOUDY    45  41  86 E7        30.13R
FTW-ALLIANCE   LGT RAIN  42  41  96 NE6       30.13S FOG     WCI  38
FTW-SPINKS     CLOUDY    45  43  93 E6        30.14R FOG
ARLINGTON      LGT RAIN  45  41  86 E6        30.14R
ADDISON        CLOUDY    43  39  87 NE8       30.14  WCI  38
MESQUITE       CLOUDY    43  41  93 CALM      30.16R
LANCASTER      RAIN      43  41  93 NE5       30.16R
$$

TXZ091>094-102>105-117-120-121-131>134-180200-
NORTH CENTRAL TEXAS

CITY           SKY/WX    TMP DP  RH WIND       PRES   REMARKS
SHRMAN/DENISON DRIZZLE   38  38 100 E3        30.17S
GAINESVILLE    RAIN      38  37  96 E9        30.16F WCI  32
BOWIE          CLOUDY    39  38  99 E6        30.13R FOG     WCI  34
BRIDGEPORT     DRIZZLE   42  42 100 E5        30.14R WCI  39
DECATUR        CLOUDY    39  39 100 E9        30.12S FOG     WCI  33
DENTON         LGT RAIN  40  39  97 NE7       30.15R WCI  35
MCKINNEY       LGT RAIN  40  39  97 NE7       30.16R WCI  35
GREENVILLE     RAIN      41  37  87 NE7       30.18R WCI  36
ROCKWALL       RAIN      41  40  99 NE8       30.14R WCI  35
TERRELL        RAIN      44  41  89 NE8       30.16R FOG     WCI  39
WAXAHACHIE     CLOUDY    43  43 100 NE6       30.14S WCI  39
CLEBURNE       LGT RAIN  43  43 100 NE9       30.13S WCI  37
GRANBURY       DRIZZLE   46  43  91 E3        30.13R
$$

TXZ083>090-098>101-113>116-127>130-139>142-154-155-180200-
WESTERN NORTH TEXAS

CITY           SKY/WX    TMP DP  RH WIND       PRES   REMARKS
WICHITA FALLS  DRIZZLE   39  38  96 SE12      30.12R FOG     WCI  32
WF-KICKAPOO    CLOUDY    40  40 100 E8        30.13S FOG     WCI  34
VERNON         CLOUDY    40  37  86 SE13      30.08F WCI  33
ABILENE        CLOUDY    50  42  74 SE12      30.05R
ABILENE-DYESS  CLOUDY    48  42  77 S7        30.04R
BRECKENRIDGE   CLOUDY    45  43  93 E10       30.08S WCI  40
GRAHAM         CLOUDY    42  41  99 E5        30.10R FOG     WCI  39
MINERAL WELLS  CLOUDY    43  41  93 E9        30.10R FOG     WCI  38
STEPHENVILLE   CLOUDY    44  42  91 E3        30.12R
COMANCHE       CLOUDY    46  46 100 E3        30.08S FOG
BROWNWOOD      CLOUDY    46  45  93 CALM      30.09R
COLEMAN        CLOUDY    48  46  92 S10       30.06S
$$

TXZ143>147-156>162-174-175-180200-
CENTRAL TEXAS

CITY           SKY/WX    TMP DP  RH WIND       PRES   REMARKS
WACO           CLOUDY    48  45  89 N5        30.12R
WACO-TSTC      CLOUDY    48  45  87 CALM      30.12R
WACO-MCGREGOR  CLOUDY    48  39  71 CALM      30.12R
HILLSBORO      CLOUDY    45  42  89 NE6       30.13R
CORSICANA      CLOUDY    47  44  90 NE3       30.14R
MEXIA          RAIN      46  45  93 CALM      30.11R
HEARNE         CLOUDY    48  46  91 CALM      30.11R
CAMERON        CLOUDY    49  46  90 E3        30.09S
TEMPLE         CLOUDY    48  39  71 CALM      30.09R
KILLEEN        CLOUDY    47  45  91 NW5       30.09R
KILLEEN-SKYLRK CLOUDY    48  39  71 CALM      30.06R
FORT HOOD      LGT RAIN  48  43  81 VRB5      30.08R
GATESVILLE     CLOUDY    46  43  87 CALM      30.12R
HAMILTON       LGT RAIN  46  46 100 S5        30.10R
LAMPASAS       LGT SNOW  47  46  96 CALM      30.07S
$$

TXZ095>097-106>112-122>126-135>138-148>153-164>167-180200-
EAST TEXAS

CITY           SKY/WX    TMP DP  RH WIND       PRES   REMARKS
PARIS          CLOUDY    37  34  87 NE8       30.21R WCI  31
SULPHUR SPRNGS CLOUDY    41  39  95 N6        30.21R WCI  37
MOUNT PLEASANT CLOUDY    42  38  86 N6        30.21R WCI  39
MINEOLA        DRIZZLE   46  39  76 N3        30.18R
TYLER          RAIN      48  39  71 CALM      30.15R
LONGVIEW       CLOUDY    47  38  71 E3        30.15R
MARSHALL       CLOUDY    48  41  75 E3        30.16S
ATHENS         RAIN      45  43  93 CALM      30.14R
PALESTINE      DRIZZLE   46  46  97 CALM      30.15S
JACKSONVILLE   CLOUDY    47  44  91 NE3       30.13R
HENDERSON      CLOUDY    46  42  87 NE3       30.15R
NACOGDOCHES    CLOUDY    48  39  71 SE6       30.12R
LUFKIN         CLOUDY    53  43  68 E8        30.11F
$$

SUPPLEMENTAL OBSERVATIONS (CENTRAL)

CITY           SKY/WX    TMP DP  RH WIND       PRES   REMARKS
LAKE TEXOMA      N/A     37  36  93 NE5         N/A  WCI  34
CADDO GRASSLND   N/A     37  34  87 NE6         N/A  WCI  33
PAT MAYSE LAKE   N/A     36  34  93 N2          N/A
GREENVILLE       N/A     39  36  87 NE9         N/A  WCI  33
ATHENS           N/A     46  41  81 CALM        N/A
PALESTINE        N/A     46  43  87 CALM        N/A
LAKE LIMESTONE   N/A     46  43  87 E3          N/A
MCGREGOR         N/A     46  41  81 NE2         N/A
TEMPLE           N/A     46  41  81 N3          N/A
$$

SUPPLEMENTAL OBSERVATIONS (WEST)

CITY           SKY/WX    TMP DP  RH WIND       PRES   REMARKS
MILLERS CREEK    N/A     43  36  75 E9          N/A  WCI  37
POSSUM KINGDOM   N/A     43  39  87 E6          N/A  WCI  39
LBJ GRASSLAND    N/A     39  36  87 E7          N/A  WCI  34
GRANBURY         N/A     45  41  87 E6          N/A
COMANCHE         N/A     45  43  93 E5          N/A
HAMBY            N/A     48  39  71 SE8         N/A
IVIE RESERVOIR   N/A     48  45  87 SE9         N/A
COLORADO BEND    N/A     46  43  87 SE2         N/A
$$

SUPPLEMENTAL OBSERVATIONS (EAST)

CITY           SKY/WX    TMP DP  RH WIND       PRES   REMARKS
CLARKSVILLE      N/A     37  36  93 NE5         N/A  WCI  34
TEXARKANA        N/A     43  36  75 NE3         N/A
LINDEN           N/A     45  36  70 E3G12       N/A
CADDO LAKE       N/A     45  37  76 E2          N/A
GILMER           N/A     45  37  76 N3          N/A
HENDERSON        N/A     46  41  81 NE5         N/A
LUFKIN           N/A     52  45  76 MISG        N/A
N SABINE NF      N/A     45  41  87 MISG        N/A
S SABINE NF      N/A     50  43  76 NE3         N/A
$$

SUPPLEMENTAL OBSERVATIONS ARE A COLLECTION OF AUTOMATED INSTRUMENTS
THAT ARE MAINTAINED BY A VARIETY OF FEDERAL AND STATE AGENCIES.
CERTAIN ELEMENTS...SUCH AS HUMIDITY VALUES AND SUSTAINED WIND
SPEEDS...MAY BE APPROXIMATED.



USA.gov is the U.S. government's official web portal to all federal, state and local government web resources and services.